When you browse on this site, cookies collect data to enhance your experience and personalize the content and advertising you see.
Visit our Privacy Policy to learn more. By continuing to use the site, you agree to this use of cookies and data.
  • In Austria
  • List of Countries
  • For 7 days
  • Water Temperature
  • Weather Map
  • News
  • Weather Widgets
  • user-avatar
    Login

    Hourly Weather El Llano

    Today, 23 October, Wednesday

    Time Temperature Precipitation Wind Pressure Humidity
    00:00 +15°C° 0.6 mm 1 mps 594 mmHg 93%
    01:00 +15°C° 0.6 mm 1 mps 594 mmHg 94%
    02:00 +15°C° 0.6 mm 1 mps 594 mmHg 95%
    03:00 +14°C° 0 mm 1 mps 593 mmHg 95%
    04:00 +13°C° 0 mm 0 mps 593 mmHg 95%
    05:00 +13°C° 0 mm 0 mps 593 mmHg 95%
    06:00 +15°C° 0 mm 1 mps 594 mmHg 91%
    07:00 +15°C° 0 mm 1 mps 594 mmHg 88%
    08:00 +16°C° 0 mm 1 mps 595 mmHg 85%
    09:00 +17°C° 0.1 mm 2 mps 595 mmHg 78%
    10:00 +18°C° 0.1 mm 2 mps 595 mmHg 72%
    11:00 +20°C° 0.1 mm 2 mps 595 mmHg 66%
    12:00 +20°C° 0 mm 3 mps 594 mmHg 64%
    13:00 +20°C° 0 mm 3 mps 594 mmHg 62%
    14:00 +21°C° 0 mm 3 mps 593 mmHg 60%
    15:00 +20°C° 0 mm 3 mps 593 mmHg 66%
    16:00 +19°C° 0 mm 3 mps 593 mmHg 71%
    17:00 +18°C° 0 mm 3 mps 592 mmHg 76%
    18:00 +17°C° 0 mm 2 mps 592 mmHg 82%
    19:00 +16°C° 0 mm 2 mps 593 mmHg 88%
    20:00 +14°C° 0 mm 1 mps 593 mmHg 95%
    21:00 +14°C° 0 mm 1 mps 592 mmHg 95%
    22:00 +14°C° 0 mm 1 mps 592 mmHg 95%
    23:00 +13°C° 0 mm 0 mps 592 mmHg 96%

    Tomorrow, 24 October, Thursday

    Time Temperature Precipitation Wind Pressure Humidity
    00:00 +13°C° 0 mm 0 mps 592 mmHg 95%
    01:00 +12°C° 0 mm 0 mps 591 mmHg 95%
    02:00 +12°C° 0 mm 0 mps 591 mmHg 95%
    03:00 +12°C° 0 mm 0 mps 591 mmHg 94%
    04:00 +12°C° 0 mm 0 mps 591 mmHg 94%
    05:00 +12°C° 0 mm 0 mps 591 mmHg 93%
    06:00 +13°C° 0 mm 0 mps 592 mmHg 88%
    07:00 +14°C° 0 mm 0 mps 592 mmHg 82%
    08:00 +16°C° 0 mm 0 mps 593 mmHg 76%
    09:00 +19°C° 0 mm 1 mps 594 mmHg 69%
    10:00 +21°C° 0 mm 1 mps 594 mmHg 61%
    11:00 +23°C° 0 mm 2 mps 594 mmHg 54%
    12:00 +23°C° 0.1 mm 2 mps 594 mmHg 53%
    13:00 +24°C° 0.1 mm 3 mps 593 mmHg 53%
    14:00 +23°C° 0.1 mm 4 mps 593 mmHg 52%
    15:00 +22°C° 0.1 mm 3 mps 592 mmHg 59%
    16:00 +20°C° 0.1 mm 3 mps 592 mmHg 66%
    17:00 +19°C° 0.1 mm 2 mps 591 mmHg 73%
    18:00 +18°C° 0.7 mm 2 mps 592 mmHg 78%
    19:00 +18°C° 0.7 mm 1 mps 592 mmHg 83%
    20:00 +16°C° 0.7 mm 1 mps 592 mmHg 88%
    21:00 +16°C° 0.3 mm 1 mps 592 mmHg 89%
    22:00 +16°C° 0.3 mm 1 mps 592 mmHg 91%
    23:00 +15°C° 0.3 mm 0 mps 592 mmHg 92%

    Day after tomorrow, 25 October, Friday

    Time Temperature Precipitation Wind Pressure Humidity
    00:00 +14°C° 0.1 mm 0 mps 592 mmHg 93%
    01:00 +14°C° 0.1 mm 0 mps 591 mmHg 93%
    02:00 +14°C° 0.1 mm 0 mps 591 mmHg 93%
    03:00 +14°C° 0.1 mm 0 mps 591 mmHg 94%
    04:00 +15°C° 0.1 mm 1 mps 591 mmHg 94%
    05:00 +15°C° 0.1 mm 1 mps 592 mmHg 94%
    06:00 +15°C° 0 mm 1 mps 592 mmHg 90%
    07:00 +16°C° 0 mm 1 mps 593 mmHg 86%
    08:00 +18°C° 0 mm 1 mps 594 mmHg 82%
    09:00 +18°C° 0 mm 2 mps 594 mmHg 75%
    10:00 +20°C° 0 mm 3 mps 595 mmHg 67%
    11:00 +21°C° 0 mm 3 mps 595 mmHg 60%
    12:00 +21°C° 0.3 mm 4 mps 594 mmHg 63%
    13:00 +21°C° 0.3 mm 4 mps 594 mmHg 65%
    14:00 +20°C° 0.3 mm 5 mps 593 mmHg 68%
    15:00 +19°C° 0.3 mm 5 mps 593 mmHg 74%
    16:00 +16°C° 0.3 mm 5 mps 592 mmHg 80%
    17:00 +14°C° 0.3 mm 4 mps 592 mmHg 86%
    18:00 +14°C° 0.8 mm 4 mps 592 mmHg 87%
    19:00 +13°C° 0.8 mm 3 mps 593 mmHg 88%
    20:00 +14°C° 0.8 mm 2 mps 593 mmHg 89%
    21:00 +14°C° 1.1 mm 2 mps 593 mmHg 90%
    22:00 +14°C° 1.1 mm 2 mps 593 mmHg 91%
    23:00 +14°C° 1.1 mm 2 mps 593 mmHg 92%

    26 October, Saturday

    Time Temperature Precipitation Wind Pressure Humidity
    00:00 +13°C° 0.1 mm 2 mps 593 mmHg 92%
    01:00 +13°C° 0.1 mm 2 mps 593 mmHg 92%
    02:00 +13°C° 0.1 mm 2 mps 592 mmHg 92%
    03:00 +13°C° 0 mm 1 mps 592 mmHg 92%
    04:00 +13°C° 0 mm 1 mps 592 mmHg 93%
    05:00 +13°C° 0 mm 1 mps 592 mmHg 93%
    06:00 +14°C° 0 mm 1 mps 593 mmHg 89%
    07:00 +14°C° 0 mm 1 mps 593 mmHg 86%
    08:00 +15°C° 0 mm 1 mps 594 mmHg 82%
    09:00 +18°C° 0 mm 1 mps 594 mmHg 76%
    10:00 +17°C° 0 mm 0 mps 594 mmHg 70%
    11:00 +19°C° 0 mm 0 mps 594 mmHg 64%
    12:00 +22°C° 0.2 mm 1 mps 594 mmHg 61%
    13:00 +21°C° 0.2 mm 2 mps 594 mmHg 59%
    14:00 +23°C° 0.2 mm 2 mps 593 mmHg 56%
    15:00 +21°C° 0.7 mm 2 mps 593 mmHg 65%
    16:00 +19°C° 0.7 mm 2 mps 593 mmHg 73%
    17:00 +19°C° 0.7 mm 1 mps 592 mmHg 82%
    18:00 +18°C° 0.8 mm 1 mps 593 mmHg 84%
    19:00 +18°C° 0.8 mm 1 mps 593 mmHg 86%
    20:00 +16°C° 0.8 mm 1 mps 593 mmHg 88%
    21:00 +16°C° 0.4 mm 1 mps 593 mmHg 88%
    22:00 +15°C° 0.4 mm 1 mps 593 mmHg 89%
    23:00 +15°C° 0.4 mm 1 mps 592 mmHg 90%

    27 October, Sunday

    Time Temperature Precipitation Wind Pressure Humidity
    00:00 +15°C° 0 mm 1 mps 592 mmHg 90%
    01:00 +15°C° 0 mm 1 mps 592 mmHg 90%
    02:00 +14°C° 0 mm 1 mps 591 mmHg 90%
    03:00 +14°C° 0 mm 1 mps 591 mmHg 90%
    04:00 +14°C° 0 mm 1 mps 591 mmHg 89%
    05:00 +14°C° 0 mm 1 mps 591 mmHg 89%
    06:00 +14°C° 0 mm 0 mps 592 mmHg 83%
    07:00 +16°C° 0 mm 0 mps 593 mmHg 78%
    08:00 +17°C° 0 mm 0 mps 594 mmHg 72%
    09:00 +20°C° 0 mm 1 mps 594 mmHg 66%
    10:00 +22°C° 0 mm 1 mps 594 mmHg 61%
    11:00 +23°C° 0 mm 1 mps 594 mmHg 56%
    12:00 +23°C° 0.4 mm 2 mps 594 mmHg 56%
    13:00 +23°C° 0.4 mm 2 mps 593 mmHg 56%
    14:00 +24°C° 0.4 mm 3 mps 593 mmHg 57%
    15:00 +21°C° 1.1 mm 2 mps 592 mmHg 64%
    16:00 +20°C° 1.1 mm 2 mps 592 mmHg 70%
    17:00 +19°C° 1.1 mm 2 mps 592 mmHg 77%
    18:00 +19°C° 0.3 mm 1 mps 592 mmHg 80%
    19:00 +18°C° 0.3 mm 1 mps 592 mmHg 82%
    20:00 +18°C° 0.3 mm 1 mps 593 mmHg 85%
    21:00 +16°C° 0 mm 1 mps 592 mmHg 85%
    22:00 +15°C° 0 mm 0 mps 592 mmHg 86%
    23:00 +14°C° 0 mm 0 mps 592 mmHg 87%

    28 October, Monday

    Time Temperature Precipitation Wind Pressure Humidity
    00:00 +14°C° 0 mm 0 mps 592 mmHg 87%
    01:00 +14°C° 0 mm 0 mps 592 mmHg 87%
    02:00 +13°C° 0 mm 0 mps 591 mmHg 87%
    03:00 +13°C° 0 mm 0 mps 591 mmHg 87%
    04:00 +13°C° 0 mm 0 mps 591 mmHg 87%
    05:00 +12°C° 0 mm 0 mps 591 mmHg 87%
    06:00 +14°C° 0 mm 0 mps 592 mmHg 80%
    07:00 +16°C° 0 mm 0 mps 593 mmHg 72%
    08:00 +17°C° 0 mm 0 mps 595 mmHg 65%
    09:00 +21°C° 0 mm 1 mps 595 mmHg 59%
    10:00 +21°C° 0 mm 2 mps 595 mmHg 53%
    11:00 +22°C° 0 mm 3 mps 596 mmHg 47%
    12:00 +22°C° 0 mm 4 mps 595 mmHg 50%
    13:00 +21°C° 0 mm 5 mps 594 mmHg 53%
    14:00 +21°C° 0 mm 6 mps 594 mmHg 56%
    15:00 +19°C° 0 mm 5 mps 593 mmHg 64%
    16:00 +17°C° 0 mm 5 mps 593 mmHg 71%
    17:00 +15°C° 0 mm 4 mps 593 mmHg 78%
    18:00 +14°C° 0 mm 4 mps 593 mmHg 79%
    19:00 +14°C° 0 mm 3 mps 594 mmHg 80%
    20:00 +13°C° 0 mm 3 mps 594 mmHg 81%
    21:00 +13°C° 0 mm 3 mps 594 mmHg 82%
    22:00 +14°C° 0 mm 2 mps 594 mmHg 82%
    23:00 +14°C° 0 mm 2 mps 594 mmHg 83%

    29 October, Tuesday

    Time Temperature Precipitation Wind Pressure Humidity
    00:00 +14°C° 0 mm 2 mps 594 mmHg 84%
    01:00 +14°C° 0 mm 2 mps 594 mmHg 85%
    02:00 +14°C° 0 mm 2 mps 594 mmHg 86%
    03:00 +13°C° 0 mm 1 mps 594 mmHg 86%
    04:00 +13°C° 0 mm 1 mps 594 mmHg 87%
    05:00 +13°C° 0 mm 1 mps 594 mmHg 88%
    06:00 +14°C° 0 mm 1 mps 594 mmHg 85%
    07:00 +14°C° 0 mm 2 mps 595 mmHg 82%
    08:00 +14°C° 0 mm 2 mps 595 mmHg 80%
    09:00 +15°C° 0 mm 2 mps 595 mmHg 77%
    10:00 +16°C° 0 mm 2 mps 595 mmHg 74%
    11:00 +16°C° 0 mm 2 mps 595 mmHg 71%
    12:00 +17°C° 0 mm 2 mps 595 mmHg 68%
    13:00 +18°C° 0 mm 2 mps 594 mmHg 66%
    14:00 +19°C° 0 mm 2 mps 594 mmHg 63%
    15:00 +18°C° 0 mm 2 mps 594 mmHg 68%
    16:00 +17°C° 0 mm 2 mps 594 mmHg 74%
    17:00 +16°C° 0 mm 3 mps 593 mmHg 79%
    18:00 +15°C° 0 mm 2 mps 593 mmHg 83%
    19:00 +14°C° 0 mm 2 mps 594 mmHg 87%
    20:00 +13°C° 0 mm 2 mps 594 mmHg 91%
    21:00 +13°C° 0 mm 1 mps 594 mmHg 89%
    22:00 +13°C° 0 mm 1 mps 594 mmHg 87%
    23:00 +13°C° 0 mm 1 mps 594 mmHg 85%
    Show more